Location: Unspecified
(0.0000°N, 0.0000°E)
Time: 10:11:05
(UTC+00:00)

RS-8 - Pass Details

Date: 07 October 2022
Orbit: 1579 x 1660 km, 83.0° (Epoch: 01 December)

Event Time Altitude Azimuth Distance (km) Brightness Sun altitude
Rises 18:59:00 0° 152° (SSE) 4,770 10.4 -17.7°
Reaches altitude 10° 19:03:01 10° 136° (SE) 3,781 9.7 -18.7°
Enters shadow 19:05:20 16° 123° (ESE) 3,352 9.3 -19.3°
